Погода в Брагине

Погода в Брагине : погода сейчас, прогноз погоды и архив. Всё, что Вы хотите узнать о погоде в Брагине!

Поиск расширенной информации на нашем сайте:

Другие новости

Новости СМИ2

Главная страница сайта

Новости сайта

03.07.2017

Напоминаем, что на нашем специализированном сайте Метеоцентр.Азия вы можете получить высокодетализированные автоматические прогнозы погоды по пунктам России, СНГ и мира в авиационном формате (включающие направление и скорость ветра, видимость, явления погоды, количество и форму облачности, нижнюю и верхнюю границу облачности).

Рекомендуем: Шторы для спальни интернет магазин готовые шторы интернет магазин.

Погода в Брагине - сегодня

Время (UTC), дата Ветер
(°,м/с) 
Видим.   Явления Облачность Т
(°С)
Тd
(°С)
f(%) Тe
(°С)
Pmin
(гПа)
dP
(гПа)
Po
(мм)
O2
(г/м3)
Тmin Tmax R s Состояние
почвы
12 14.09.17 210 (ЮЗ) 6{13}  45000 м    6/4 2000 м средняя, верхняя 
[Ac trans|Ci fib]
+23.4 +12.6 51 +28  1007.4  -0.6  746  274           
15 14.09.17 200 (Ю) 5{11}  55000 м    3/3 2000 м средняя 
[Ac trans]
+24.4 +12.8 48 +30  1006.2  -1.2  745  273           
18 14.09.17 180 (Ю) 55000 м    3/3 2000 м средняя 
[Ac trans]
+18.9 +11.7 63 +23  1006.7  0.2  745  279    +25.2       
06 15.09.17 260 (З) 50000 м    9/9 2000 м средняя 
[Ac und]
+15.5 +10.8 74 +17  1006.6  2.2  745  282  +13.9         
12 15.09.17 250 (З) 8{11}  н/о  {ливн. осадки}  5/5 1000 м 
[Cu med, cong]
+18.2 +7.4 49 +18  1011.9  1.6  749  282           
15 15.09.17 270 (З) 55000 м    3/3 600 м 
[Cu hum]
+17.5 +6.6 49 +17  1013.3  1.4  750  283      0.1     
18 15.09.17 230 (ЮЗ) 3{10}  н/о    ясно 
+10 +6.7 80 +10  1016  2.2  751  291    +19  0.1     
09 16.09.17 220 (ЮЗ) 55000 м    9/0 верхняя 
[Cs]
+15.9 +8.7 62 +16  1021.5  756  286           
12 16.09.17 240 (ЮЗ) н/о    8/8 2000 м средняя 
[Ac trans]
+18.5 +7.8 50 +20  1020.4  -1  755  284           
15 16.09.17 130 (ЮВ) 50000 м    10/10 2000 м 
[Ac und]
+17.3 +9.4 60 +18  1019.3  -1.1  754  284           
18 16.09.17 080 (В) 50000 м    ясно 
+14.8 +10.1 73 +16  1019.5  754  286    +19.6       
06 17.09.17 150 (ЮВ) 50000 м    8/4 600 м верхняя 
[Cu med, cong|Ci fib]
+15.8 +9.9 68 +17  1015.8  -0.2  752  284  +12       
09 17.09.17 170 (Ю) 40000 м    3/0 верхняя 
[Ci fib]
+24.9 +13.9 50 +32  1014.2  -1.1  751  274           
12 17.09.17 150 (ЮВ) 6{10}  50000 м    3/0 верхняя 
[Ci fib]
+27.7 +12.4 39 +32  1012  -2  749  272           
15 17.09.17 150 (ЮВ) 3{10}  45000 м    9/0 верхняя 
[Cs]
+26.8 +13 42 +32  1010.1  -1.9  748  272           
18 17.09.17 130 (ЮВ) 40000 м    ясно 
+21.8 +12.8 57 +27  1009.7  -0.7  747  276    +28.3       
09 18.09.17 230 (ЮЗ) 10-14{15}  45000 м    4/4 1000 м 
[Cu med, cong]
+20 +10.1 53 +21  1008.7  1.2  746  278           
12 18.09.17 220 (ЮЗ) 8-12{15}  60000 м    3/3 1000 м 
[Cu hum]
+20.2 +7.9 45 +20  1009.7  747  279           
15 18.09.17 240 (ЮЗ) 7-10{15}  55000 м    1/0 верхняя 
[Ci fib]
+18.6 +6.1 44 +19  1010.3  0.5  748  281           
18 18.09.17 220 (ЮЗ) 4{12}  55000 м    ясно 
+13.7 +6.5 62 +13  1012.2  1.6  749  286    +20.6       
06 19.09.17 280 (З) н/о    1/0 верхняя 
[Ci fib]
+11.3 +8.6 83 +10  1018  1.9  753  290  +7.2         
09 19.09.17 250 (З) 45000 м    4/1 1000 м верхняя 
[Cu hum|Ci fib]
+16 +8.1 59 +16  1019.2  1.4  754  286           
12 19.09.17 270 (З) 65000 м    8/4 1000 м верхняя 
[Cu hum|Ci]
+19.4 +8.6 50 +20  1018.8  -0.2  754  282           
15 19.09.17 тихо ()   55000 м    9/0 верхняя 
[Cs]
+17.8 +7.2 50 +18  1018.3  -0.6  753  284           
18 19.09.17 тихо ()   30000 м    9/0 верхняя 
[Cs]
+11.9 +9.3 84 +12  1019.5  0.9  754  290    +19.9       
Время (UTC), дата Ветер
(°,м/с) 
Видим.   Явления Облачность Т
(°С)
Тd
(°С)
f(%) Тe
(°С)
Pmin
(гПа)
dP
(гПа)
Po
(мм)
O2
(г/м3)
Тmin Tmax R s Состояние
почвы

Для получения пояснительной информации подведите курсор к названию столбца.

ПОГОДА в Брагине - архив

Всё, что Вы хотите узнать о погоде в Брагине - удобно и подробно!

Выберите нужную дату (начиная с 1 января 2015* года) и нажмите кнопку "Найти".
Будут отображены архивные сводки погоды по пункту Брагин, начиная с указанной даты.


Отображать данные в формате CSV (для использования в таблицах Excel)


Внимание! Наш архив погоды предназначен исключительно для личного некоммерческого использования в познавательных целях. Если Вам необходимы официальные справки о состоянии погоды (для производственных, юридических, коммерческих и т.п. целей), обращайтесь в органы Росгидромета.

*Примечание: данная дата относится к архиву по метеостанциям СССР (Россия, СНГ, Балтия).
Архив по метеостанциям Зарубежной Европы и Азии (кроме Китая) хранится 10 дней, по другим регионам земного шара (Китай, Африка, Америка, Австралия, Океания) - 1 день.

Брагин - район местоположения метеостанции


Название, широта, долгота, высота метеостанции:
Брагин 51.8°ш. 30.3°д. 116 м над ур. моря [Беларусь]

Дополнительная информация

В oтличие oт бoльшинства пoгoдных сайтoв мы публикуем пoдрoбную метеoинфoрмацию в детальнoм прoфессиoнальнoм фoрмате.

Характеристики температуры и влажнoсти вoздуха измеряются на высoте 2 м в тени вдали oт зданий и деревьев.
Скoрoсть ветра измеряется на высoте 10 м (на урoвне рoста челoвека скoрoсть ветра ниже в 1.5-2 раза). Если метеoстанция нахoдится в гoрoде или в лесу, тo скoрoсть ветра занижена на 2-4 м/с пo сравнению с oткрытым местoм. Скoрoсть ветра над акватoриями крупных рек и oзёр, а также на вершинах хoлмoв на 2-5 м/с выше, чем в oбычных услoвиях.
Атмoсфернoе давление в разных тoчках местнoсти мoжет значительнo oтличаться oт давления на метеoстанции, в зависимoсти oт услoвий рельефа (при пoдъёме на 10 м давление пoнижается примернo на 1 мм рт.ст.).